Wetbulb
67.49 67.33 68.86 70.06 71.87 73.14 73.82 74.80 75.50 76.25 78.01 78.60 79.11 79.00 79.15 79.83 79.93 78.35 78.32 77.23 75.99 76.59 75.42 76.19 74.61 70.91 68.56 71.22 76.75 76.26 76.50 74.79 74.31
66.48 67.06 67.75 70.84 72.14 73.51 74.38 75.09 75.75 76.35 77.86 78.52 78.95 78.11 79.16 79.66 80.09 79.26 78.56 79.23 79.70 77.95 78.75 76.24 76.37 73.63 72.39 73.20 76.54 76.33 75.97 74.41 73.69
66.49 68.84 70.34 71.07 71.99 73.86 74.87 74.96 75.62 76.65 77.84 77.94 78.19 78.55 78.31 78.34 78.44 79.06 78.95 79.43 79.01 78.45 77.17 77.84 77.24 77.47 77.25 76.63 75.26 76.84 76.17 75.57 75.70
69.24 70.48 71.62 72.26 73.18 74.62 74.81 75.43 75.58 75.71 76.87 78.17 77.04 76.49 76.19 78.10 78.03 77.74 78.34 78.41 78.57 77.16 78.27 79.22 78.64 77.86 77.69 77.68 76.73 75.69 75.62 74.72 75.02
70.10 70.89 71.77 72.61 73.35 75.11 75.48 76.16 76.89 77.37 76.02 75.35 75.75 76.30 78.20 76.77 77.22 77.05 75.82 75.53 76.20 77.87 78.05 77.02 76.56 76.98 78.18 76.89 76.06 76.67 75.32 74.67 75.06
70.41 71.30 71.98 72.79 72.08 72.54 73.32 73.84 75.41 75.93 75.71 74.60 75.23 76.13 74.75 74.65 75.09 74.83 74.61 74.12 74.44 75.85 75.56 76.67 75.37 75.38 74.92 75.40 76.83 76.24 75.59 74.89 74.87
68.74 69.28 69.99 68.87 68.91 69.88 70.31 71.31 72.24 72.44 71.93 72.88 73.99 72.64 71.77 73.25 73.42 73.41 72.87 73.71 73.83 73.68 75.19 74.99 74.85 74.75 74.99 74.00 73.73 73.57 74.91 75.89 74.61
67.15 67.03 67.15 67.92 67.47 69.27 70.31 71.06 71.47 72.31 72.36 73.22 72.82 73.13 73.27 74.09 75.17 75.42 74.67 74.14 73.83 73.67 73.70 73.21 73.85 72.81 73.29 73.20 72.33 70.97 72.78 74.78 75.39
66.12 66.63 67.08 67.50 68.28 68.62 69.27 70.16 71.05 71.03 71.65 72.78 73.85 72.80 71.93 73.68 74.18 74.42 74.22 74.09 73.53 73.41 72.49 71.89 72.31 72.14 71.79 71.59 70.68 67.72 66.67 69.77 71.46
65.59 66.60 65.85 67.80 67.54 68.23 69.13 68.66 69.67 68.74 70.99 72.27 73.10 72.20 71.91 72.41 72.84 72.28 72.56 72.35 71.95 71.71 71.34 71.74 71.12 70.70 71.21 70.58 70.96 66.53 65.83 66.87 70.34
65.91 66.74 66.33 66.96 66.45 66.82 68.70 67.72 67.54 69.48 69.44 71.46 72.18 72.20 71.81 71.94 71.72 71.14 71.72 71.66 70.85 70.75 70.58 70.04 70.07 70.36 70.51 70.31 70.23 65.43 64.67 65.84 69.17
67.75 67.11 67.41 65.00 67.48 68.28 68.86 68.37 69.93 70.24 69.58 70.05 70.39 69.75 70.77 71.54 71.60 70.84 70.38 69.11 69.09 69.20 68.56 68.50 69.01 69.72 69.87 69.39 69.62 64.51 63.51 65.12 69.19
66.92 67.05 66.59 65.67 65.84 66.06 66.44 68.81 68.57 68.53 67.71 68.21 67.80 68.42 69.25 69.84 69.65 68.75 67.70 67.71 66.98 66.88 67.12 67.08 67.88 67.95 68.46 66.97 68.37 64.52 61.46 62.88 67.15
64.87 64.86 64.92 65.52 65.75 65.89 67.00 67.71 67.06 66.98 66.41 65.51 67.68 68.25 68.39 68.34 68.45 67.77 67.28 66.61 66.66 66.42 66.43 66.58 66.55 67.21 68.02 68.20 67.20 67.14 61.25 60.33 65.59
63.10 62.93 63.58 63.71 64.37 64.94 65.67 66.61 65.48 64.86 64.74 65.94 66.01 65.73 65.34 65.79 66.84 65.82 64.63 64.71 64.52 64.94 64.44 63.96 64.16 64.90 65.79 66.73 67.34 62.92 61.77 59.60 59.13
61.88 62.11 63.38 62.91 62.78 63.29 64.25 63.60 62.63 61.58 62.35 63.77 64.57 64.25 63.85 64.00 64.51 64.05 64.03 63.25 63.38 62.94 63.40 62.76 62.93 63.20 63.01 63.62 64.75 66.09 59.36 56.98 57.55
60.79 61.52 61.61 61.58 60.11 59.13 59.14 60.01 59.85 60.25 60.25 60.20 60.79 61.12 61.35 61.17 59.89 59.60 60.94 61.28 61.28 61.34 61.72 61.60 61.71 61.69 60.61 61.70 63.17 63.66 64.51 62.04 61.00
59.32 59.21 58.63 58.13 57.00 56.43 55.94 56.73 57.82 57.52 58.41 57.75 56.64 57.47 57.37 57.63 58.23 57.68 57.44 58.40 59.48 60.29 61.29 60.03 60.01 60.17 60.75 59.95 60.33 61.57 56.43 53.50 59.18
57.27 56.20 57.25 56.17 55.70 55.00 55.04 54.35 55.04 55.67 56.31 54.71 53.75 52.74 53.16 54.55 54.47 54.09 54.18 54.76 55.19 55.14 52.68 51.16 48.96 48.09 51.70 59.19 55.19 51.63 49.98 49.04 46.90
55.08 55.65 54.86 53.97 53.01 53.90 54.06 54.22 53.33 54.42 54.89 54.60 53.84 52.71 52.44 52.77 52.55 53.73 53.83 54.18 54.57 54.68 56.29 52.23 50.14 49.08 47.51 46.20 48.27 46.61 45.69 45.35 46.36
MSLP
999.74 999.40 1000.02 1001.17 1002.17 1003.56 1004.18 1005.74 1007.02 1007.92 1009.13 1010.18 1010.88 1011.40 1011.79 1012.04 1012.27 1012.36 1012.16 1012.24 1012.53 1012.80 1012.82 1013.08 1013.11 1013.14 1014.36 1014.28 1013.25 1014.03 1014.67 1015.06 1015.10
999.71 999.12 999.50 1000.07 1001.53 1003.21 1003.79 1005.35 1006.72 1007.68 1008.73 1009.70 1010.44 1010.94 1011.44 1011.71 1012.00 1012.31 1012.34 1012.27 1012.51 1012.58 1012.62 1012.24 1012.41 1013.62 1013.19 1013.90 1013.64 1014.09 1014.47 1014.90 1014.64
1000.00 999.70 999.78 1001.10 1002.15 1002.90 1004.13 1005.19 1006.32 1007.35 1008.31 1009.16 1009.82 1010.22 1010.84 1011.36 1011.85 1012.14 1012.24 1012.21 1012.33 1012.64 1012.96 1012.98 1012.46 1012.26 1012.53 1012.92 1013.50 1013.56 1013.89 1013.90 1013.74
1000.89 1000.45 1001.35 1002.18 1003.10 1004.36 1005.40 1005.79 1006.26 1006.94 1007.98 1008.93 1009.74 1010.43 1010.93 1011.34 1011.69 1012.01 1012.13 1012.06 1012.15 1012.47 1012.59 1012.83 1013.08 1012.94 1012.86 1012.99 1013.28 1013.50 1013.34 1013.20 1013.10
1002.31 1000.98 1002.10 1003.46 1004.67 1006.00 1006.64 1007.20 1007.65 1008.04 1008.87 1009.62 1010.37 1010.86 1011.15 1011.51 1011.70 1011.93 1011.82 1011.88 1012.01 1012.19 1012.35 1012.60 1012.76 1012.87 1012.91 1012.98 1012.91 1012.76 1012.68 1012.57 1012.37
1003.90 1003.37 1003.58 1004.19 1006.06 1007.50 1007.98 1008.44 1008.76 1009.20 1009.61 1010.19 1010.70 1010.90 1010.93 1011.14 1011.48 1011.56 1011.52 1011.80 1011.96 1012.02 1012.14 1012.35 1012.58 1012.76 1012.72 1012.59 1012.39 1012.34 1012.15 1012.03 1011.96
1003.97 1004.66 1005.33 1005.71 1007.14 1008.69 1009.13 1009.67 1009.94 1010.14 1010.31 1010.60 1010.83 1010.97 1011.24 1011.57 1011.74 1011.94 1012.11 1012.33 1012.44 1012.45 1012.37 1012.34 1012.39 1012.46 1012.43 1012.33 1012.13 1011.92 1011.60 1011.45 1011.38
1005.85 1005.66 1006.17 1006.90 1008.57 1009.76 1010.05 1010.24 1010.45 1010.68 1010.90 1011.09 1011.34 1011.65 1011.86 1011.99 1012.12 1012.25 1012.44 1012.63 1012.79 1012.79 1012.72 1012.52 1012.42 1012.36 1012.19 1012.08 1011.87 1011.52 1011.25 1011.26 1011.19
1005.49 1005.29 1006.60 1007.70 1009.08 1009.77 1009.98 1010.20 1010.39 1010.72 1011.00 1011.26 1011.52 1011.81 1011.96 1012.06 1012.21 1012.34 1012.49 1012.64 1012.75 1012.74 1012.68 1012.59 1012.45 1012.24 1012.09 1011.95 1011.72 1011.45 1011.18 1011.22 1011.11
1004.44 1006.03 1006.63 1008.03 1008.53 1009.09 1009.46 1009.84 1010.18 1010.48 1010.76 1011.17 1011.46 1011.78 1012.00 1012.16 1012.27 1012.38 1012.48 1012.56 1012.57 1012.52 1012.42 1012.24 1012.03 1011.85 1011.66 1011.54 1011.44 1011.19 1011.01 1011.00 1011.06
1006.17 1006.82 1007.32 1008.20 1008.33 1008.81 1009.28 1009.71 1010.17 1010.54 1010.90 1011.20 1011.41 1011.61 1011.79 1011.92 1012.02 1012.12 1012.17 1012.20 1012.23 1012.14 1011.99 1011.79 1011.53 1011.25 1011.09 1011.00 1010.93 1010.84 1010.64 1010.53 1010.70
1006.83 1007.49 1007.77 1008.36 1008.68 1008.87 1009.31 1009.86 1010.28 1010.64 1010.92 1011.18 1011.29 1011.38 1011.47 1011.58 1011.67 1011.77 1011.91 1012.02 1012.05 1011.96 1011.77 1011.40 1010.99 1010.65 1010.46 1010.40 1010.32 1010.30 1010.10 1010.02 1009.98
1006.97 1007.47 1007.81 1008.25 1008.66 1009.11 1009.58 1010.16 1010.49 1010.75 1010.98 1011.13 1011.27 1011.31 1011.33 1011.46 1011.62 1011.71 1011.77 1011.78 1011.73 1011.55 1011.31 1010.92 1010.50 1010.05 1009.79 1009.55 1009.53 1009.55 1009.47 1009.48 1009.36
1007.90 1008.27 1008.63 1009.05 1009.45 1009.82 1010.16 1010.48 1010.76 1011.08 1011.25 1011.37 1011.52 1011.48 1011.36 1011.41 1011.40 1011.42 1011.40 1011.27 1011.12 1010.95 1010.69 1010.34 1010.01 1009.54 1009.18 1008.99 1008.97 1008.86 1008.76 1008.59 1008.61
1008.86 1009.23 1009.56 1009.87 1010.18 1010.61 1010.96 1011.37 1011.70 1012.01 1012.13 1012.17 1012.04 1011.95 1011.83 1011.55 1011.29 1011.31 1011.16 1011.08 1010.91 1010.65 1010.40 1009.98 1009.35 1008.91 1008.44 1008.04 1007.86 1007.76 1007.70 1007.43 1007.26
1009.84 1010.25 1010.68 1010.98 1011.50 1011.93 1012.29 1012.74 1013.14 1013.05 1013.20 1013.08 1012.50 1012.26 1012.04 1011.84 1011.40 1011.23 1011.06 1010.82 1010.48 1010.14 1009.81 1009.38 1008.69 1008.12 1007.75 1007.45 1007.20 1006.84 1006.65 1006.67 1006.47
1011.10 1011.50 1011.99 1012.49 1013.00 1013.27 1013.59 1013.94 1014.06 1013.97 1013.87 1013.95 1013.33 1012.73 1012.38 1012.03 1011.60 1011.20 1011.04 1010.54 1010.11 1009.57 1009.44 1009.16 1008.76 1008.38 1007.87 1007.55 1007.05 1006.88 1006.67 1006.92 1006.75
1012.35 1012.80 1013.32 1013.78 1014.14 1014.36 1014.61 1014.67 1014.59 1014.52 1014.32 1014.25 1013.84 1013.27 1012.76 1012.36 1011.96 1011.60 1011.18 1010.65 1010.08 1009.50 1009.01 1008.70 1008.41 1007.93 1007.40 1007.03 1006.72 1006.54 1006.53 1006.69 1006.62
1013.51 1014.02 1014.13 1014.61 1015.01 1015.11 1015.16 1015.20 1015.11 1014.95 1014.95 1014.83 1014.34 1013.86 1013.22 1012.64 1012.36 1011.66 1011.09 1010.32 1009.32 1008.58 1008.13 1007.76 1007.58 1007.33 1007.25 1006.46 1006.25 1006.05 1006.02 1005.97 1005.92
1014.41 1014.73 1015.01 1015.28 1015.54 1015.58 1015.49 1015.36 1015.33 1015.19 1014.95 1014.57 1014.19 1013.66 1013.14 1012.57 1012.02 1011.26 1010.56 1009.91 1009.14 1008.07 1007.22 1006.98 1006.57 1006.16 1005.91 1005.95 1006.00 1005.87 1005.73 1005.70 1005.61
Wind_Speed
12 13 16 19 17 16 14 15 11 11 14 11 10 9 9 7 8 5 4 5 4 4 4 3 4 6 9 16 7 7 6 5 5
15 15 6 16 18 16 14 14 12 10 13 11 10 10 7 7 4 4 5 4 3 4 4 7 7 7 13 19 6 7 8 7 9
12 8 10 12 12 12 10 10 14 11 14 12 10 8 9 7 7 5 5 5 4 3 4 4 6 7 5 4 5 7 9 8 8
9 11 9 8 7 8 9 4 5 11 8 9 5 6 7 6 3 5 6 4 2 5 4 3 3 5 6 5 5 7 9 11 11
13 15 14 11 11 13 12 11 10 10 13 10 10 7 4 4 4 2 4 6 5 5 1 3 4 5 5 6 7 7 7 10 10
11 12 13 16 13 8 9 9 8 8 10 8 8 8 10 6 4 4 2 5 6 5 4 3 4 5 6 6 6 7 8 8 10
13 12 12 13 13 9 10 8 7 6 7 7 6 8 8 6 5 6 7 8 7 8 6 5 5 6 5 6 7 8 9 9 8
12 11 12 12 11 8 7 6 6 6 5 4 5 4 4 3 3 4 4 5 6 7 7 7 7 8 8 8 9 9 6 5 5
15 13 12 12 11 9 8 7 6 5 3 2 2 2 3 4 4 4 4 4 5 6 7 9 9 9 8 9 8 12 13 7 8
13 12 12 5 9 7 7 5 4 3 5 3 2 2 3 4 4 5 5 6 7 7 8 9 10 11 9 9 9 12 13 9 8
10 10 7 5 4 4 5 3 5 6 6 5 3 4 4 5 5 6 6 7 7 8 9 10 10 11 10 10 9 12 14 11 7
11 10 6 3 2 2 3 4 5 4 5 5 6 6 5 5 6 6 6 8 8 9 11 11 11 11 11 11 11 13 13 10 10
9 6 3 2 4 7 7 6 7 6 7 6 7 7 6 6 6 7 8 9 10 11 12 13 11 13 13 14 13 13 14 12 9
10 10 10 10 8 7 7 7 8 7 8 9 9 10 8 8 8 9 10 11 10 10 11 12 12 13 12 11 11 12 14 16 10
8 9 10 11 9 9 11 13 13 12 11 11 10 10 11 10 9 9 11 13 12 13 12 14 12 13 11 10 11 14 16 21 20
11 12 11 12 13 13 12 14 13 13 13 16 14 11 11 11 10 9 11 11 12 10 10 12 11 9 9 9 9 8 9 11 17
10 10 11 11 12 12 12 12 13 13 13 14 14 13 12 10 10 10 11 10 11 9 9 9 9 8 6 7 7 8 9 1 4
9 9 11 10 11 10 11 11 11 13 12 12 11 11 12 12 11 12 12 11 9 10 11 10 11 11 8 9 10 9 4 8 9
9 9 9 9 10 9 10 9 9 10 9 11 12 10 10 9 10 9 10 10 12 14 16 18 16 17 13 9 12 15 15 16 10
7 9 10 10 10 10 10 9 10 10 12 12 13 12 13 10 11 11 11 11 11 12 11 15 14 16 16 11 14 16 20 13 14
Wind_Direction
213 221 172 169 161 154 154 148 166 171 156 167 187 197 201 209 204 227 240 239 249 290 302 341 150 86 313 280 200 212 201 207 242
198 218 150 179 146 157 148 150 161 168 151 163 179 192 197 203 185 212 283 298 263 256 323 318 1 154 178 242 211 218 210 223 226
178 167 106 123 131 102 129 159 163 175 159 167 181 201 182 176 185 188 235 251 262 330 319 311 324 328 347 344 272 249 235 228 237
121 114 109 107 106 131 169 156 98 159 135 113 112 78 82 72 95 206 216 234 227 236 259 297 276 305 313 290 260 256 252 244 240
152 134 119 115 101 75 65 66 56 59 83 81 92 102 115 157 150 3 238 205 237 239 25 19 338 320 266 240 264 275 263 261 253
92 100 116 110 86 80 94 94 88 81 96 125 145 160 191 119 142 206 274 29 6 6 349 323 327 316 309 316 279 262 262 262 266
118 117 116 107 104 96 93 95 93 94 85 63 46 33 32 35 21 8 10 7 354 339 332 316 309 296 292 305 297 293 287 255 259
121 118 116 108 114 115 120 122 115 108 93 68 60 52 21 358 351 350 344 331 317 314 312 308 309 300 291 292 284 281 295 321 292
148 143 130 143 141 159 152 155 159 116 95 104 37 340 316 345 351 333 306 298 293 287 286 286 282 282 285 282 280 294 305 293 302
138 136 116 156 152 165 162 169 156 211 179 139 208 294 285 286 279 275 271 267 265 268 269 271 266 266 266 275 280 280 284 291 290
87 104 83 150 119 132 142 199 17 22 2 353 308 273 279 269 261 262 266 272 282 284 278 271 269 262 258 262 268 268 272 279 273
108 114 97 13 223 235 66 2 342 308 288 291 280 273 276 286 282 296 313 307 301 298 292 287 279 269 262 258 261 255 260 275 277
115 120 109 35 356 6 350 352 325 309 306 313 313 308 316 329 308 301 298 299 299 292 283 278 276 272 265 260 262 258 253 260 268
23 20 10 7 346 326 328 341 344 336 321 315 340 343 340 327 312 304 298 291 289 291 295 294 288 281 275 275 274 271 261 254 256
7 355 352 347 343 352 356 12 13 1 347 340 331 325 310 298 302 307 305 302 297 293 291 283 279 276 271 263 257 247 253 249 237
356 356 359 0 6 357 356 6 359 346 350 342 338 332 325 318 313 304 298 302 294 285 281 280 276 283 281 287 279 261 288 281 264
348 357 6 3 355 343 343 349 345 339 344 333 333 327 315 310 311 313 307 302 301 298 302 294 292 290 294 300 312 309 294 75 25
355 357 3 355 347 343 331 325 330 327 324 331 332 330 323 319 317 316 310 299 293 294 286 282 287 289 283 286 284 280 283 288 296
15 350 345 352 354 337 344 346 330 333 350 337 322 317 311 306 301 296 293 289 292 270 256 268 274 272 258 276 266 280 276 278 290
1 359 356 349 350 339 333 331 335 326 318 319 315 314 317 319 308 300 294 293 289 291 294 276 273 272 263 235 251 274 277 266 271